Lexington Weather

Lexington, Massachusetts, USA

47°F
10/22/2019 2:25am 
  • Lexington Conditions: Mostly cloudy
  • Temperature: 46.6°F / 8.1°CWarmer 1.3°F than last hour.
  • Dew Point: 45.0°FIncreased 1.8°Fsince last hour.
  • Relative Humidity: 94%Increased 2.0% since last hour.
  • Wind: Calm, 10-min avg: Calm, gust: None
  • Barometer: 30.12 in Steady
  • Visibility: 9 miles
  • Rain Today: 0.00 in
  •   

Regional Weather Roundup
for Boston, MA

        
000
ASUS41 KBOX 191501
RWRBOX

REGIONAL WEATHER ROUNDUP
NATIONAL WEATHER SERVICE BOSTON/NORTON MA
1100 AM EDT SAT OCT 19 2019

NOTE:  "FAIR" INDICATES FEW OR NO CLOUDS BELOW 12,000 FEET WITH NO 
SIGNIFICANT WEATHER AND/OR OBSTRUCTIONS TO VISIBILITY.

MAZALL-191600-
EASTERN MASSACHUSETTS
  
CITY           SKY/WX    TMP DP  RH WIND       PRES   REMARKS
BOSTON         FAIR      54  34  46 NW12      30.02R                  
BEVERLY        FAIR      51  36  56 NW8       30.00R                  
LAWRENCE       FAIR      50  35  56 W8        30.02S                  
BEDFORD        FAIR      54  35  48 W12       30.01R                  
BLUE HILL      NOT AVBL                                               
NORWOOD        NOT AVBL                                               
MARSHFIELD     NOT AVBL                                               
PLYMOUTH       FAIR      51  37  58 NW10      30.01S                  
TAUNTON        FAIR      53  35  50 VRB6      30.02S                  
NEW BEDFORD    FAIR      52  35  52 VRB6      30.01F                  
$$

MAZALL-191600-
CAPE COD AND THE ISLANDS
  
CITY           SKY/WX    TMP DP  RH WIND       PRES   REMARKS
FALMOUTH       SUNNY     50  36  57 N6        30.02R                  
HYANNIS        NOT AVBL                                               
CHATHAM        NOT AVBL                                               
PROVINCETOWN   FAIR      51  40  65 NW10        N/A                   
NANTUCKET      FAIR      52  40  63 NW12      30.02R                  
MARTHAS VNYRD  FAIR      52  35  52 NW10G18   30.02S                  
$$
 
MAZALL-191600-
CENTRAL AND WESTERN MASSACHUSETTS
  
CITY           SKY/WX    TMP DP  RH WIND       PRES   REMARKS
WORCESTER      FAIR      46  34  62 NW10      30.01S                  
FITCHBURG      FAIR      51  33  50 W5        30.02F                  
ORANGE         FAIR      49  33  54 NW8       30.04S                  
SPRINGFIELD    MOSUNNY   49  34  55 S3        30.04S                  
WESTFIELD      FAIR      50  33  52 CALM      30.04S                  
NORTH ADAMS    FAIR      48  32  53 N9        30.05F                  
PITTSFIELD     FAIR      47  36  65 W12       30.03S                  
$$
 
RIZALL-191600-
RHODE ISLAND
  
CITY           SKY/WX    TMP DP  RH WIND       PRES   REMARKS
PROVIDENCE     FAIR      52  36  54 N7        30.04F                  
NEWPORT        FAIR      51  35  54 NW10      30.03F                  
BLOCK ISLAND   FAIR      50  35  56 VRB7      30.05S                  
SMITHFIELD     FAIR     N/A N/A N/A W9        30.02F                  
WESTERLY       FAIR      54  36  50 VRB7      30.05F                  
$$
 
CTZALL-191600-
CONNECTICUT
  
CITY           SKY/WX    TMP DP  RH WIND       PRES   REMARKS
BRADLEY INTL   FAIR      54  35  48 N3        30.05R                  
HARTFORD       FAIR      52  36  54 VRB3      30.05F                  
BRIDGEPORT     FAIR      52  37  56 W6        30.08R                  
DANBURY        FAIR      50  36  58 W6        30.08R                  
GROTON         NOT AVBL                                               
NEW HAVEN      FAIR      53  38  56 SW8       30.07S                  
CHESTER        FAIR      54  34  47 N12       30.05S                  
MERIDEN        FAIR      50  36  58 W3        30.06S                  
WILLIMANTIC    FAIR      51  35  54 VRB6      30.05F                  
OXFORD         FAIR      48  37  65 VRB6      30.06S                  
$$

MEZ002-015-021-024-NHZ003-005-008-011-012-014-VTZ005-008-191600-
NORTHERN NEW ENGLAND
  
CITY           SKY/WX    TMP DP  RH WIND       PRES   REMARKS
PORTLAND ME    FAIR      52  35  52 N9        29.98R                  
BANGOR ME      FAIR      51  34  52 NW15G24   29.90S                  
CONCORD NH     FAIR      50  32  50 NW9       30.01R                  
MANCHESTER NH  FAIR      51  32  48 NW9       30.00R                  
NASHUA NH      FAIR      50  33  52 NW10G17   30.02R                  
PORTSMOUTH NH  SUNNY     52  33  49 NW9       29.98R                  
JAFFREY NH     FAIR      49  31  49 VRB6      30.01R                  
KEENE NH       FAIR      48  32  53 NW8       30.03S                  
BURLINGTON VT  FAIR      48  31  51 NW12      30.07S                  
MT. WASHINGTON PTSUNNY   25   7  46 NW45G51     N/A  WCI   5          
$$

NYZ052-076-191600-
EASTERN NEW YORK
  
CITY           SKY/WX    TMP DP  RH WIND       PRES   REMARKS
ALBANY         FAIR      50  36  58 NW9       30.09S                  
NEW YORK CITY  FAIR      53  34  48 SW5       30.09S                  
$$
 
ANZALL-191600-
MARINE OBSERVATIONS
  
STATION/POSITION TIME  TEMP    WIND        PRES    VSBY  WAVE
                       AIR SEA DIR/SP/G                  HT/PER
                 (UTC) (F)     (DEG/KT/KT) (MB)    (MI)  (FT/S)
BOSTON BUOY      1350   48 56  330/ 14/ 17 1015.1          2/ 3
BUZZARDS BAY     1400   49     300/ 10/ 13 1017.6R
NANTUCKET SOUND  1440      56                N/A           1/ 3
MASS BAY-STELLWA 1404   48 55  330/ 14/ 16 1015.2R  1 7/8  2/ 3
ISLE OF SHOALS   1400   47     320/ 12/ 14 1014.9R
S OF BLOCK IS    1430      60                N/A           3/ 4
$$

......................KEY.........................
  SKY/WX - SKY CONDITION/PRESENT WEATHER
  TMP    - TEMPERATURE IN FAHRENHEIT
  DWPT   - DEWPOINT IN FAHRENHEIT
  RH     - RELATIVE HUMIDITY IN PERCENT
  WIND   - DIRECTION AND SPEED IN MPH
  PRES   - MEAN SEA LEVEL PRESSURE IN INCHES OF HG
  WCI    - WIND CHILL INDEX
  VSB    - VISIBILITY IN MILES
  HX     - HEAT INDEX
  TC     - TEMPERATURE IN CELSIUS
  VRB    - VARIABLE WIND DIRECTION
  N/A    - NOT AVAILABLE
  
      

Other recent Regional Weather Roundups

Tue Oct 22, 2:10am

Tue Oct 22, 2:00am

Tue Oct 22, 1:10am

Tue Oct 22, 1:00am

Tue Oct 22, 12:10am

Tue Oct 22, 12:00am

Mon Oct 21, 11:10pm

Mon Oct 21, 11:00pm

Mon Oct 21, 10:10pm

Mon Oct 21, 10:01pm

Mon Oct 21, 9:10pm

Mon Oct 21, 9:00pm

Mon Oct 21, 8:10pm

Mon Oct 21, 8:00pm

Mon Oct 21, 7:10pm

Mon Oct 21, 7:01pm

Mon Oct 21, 6:10pm

Mon Oct 21, 6:01pm

Mon Oct 21, 5:10pm

Mon Oct 21, 5:01pm

Mon Oct 21, 4:10pm

Mon Oct 21, 4:00pm

Mon Oct 21, 3:10pm

Mon Oct 21, 3:01pm

Mon Oct 21, 2:10pm

Mon Oct 21, 2:00pm

Mon Oct 21, 1:10pm

Mon Oct 21, 1:01pm

Mon Oct 21, 12:10pm

Mon Oct 21, 12:00pm

Mon Oct 21, 11:10am

Mon Oct 21, 11:00am

Mon Oct 21, 10:10am

Mon Oct 21, 10:00am

Mon Oct 21, 9:10am

Mon Oct 21, 9:00am

Mon Oct 21, 7:10am

Mon Oct 21, 7:00am

Mon Oct 21, 6:10am

Mon Oct 21, 6:00am

Mon Oct 21, 5:10am

Mon Oct 21, 5:00am

Mon Oct 21, 4:10am

Mon Oct 21, 4:00am

Mon Oct 21, 3:10am

Mon Oct 21, 3:00am

Mon Oct 21, 2:10am

Mon Oct 21, 2:01am

Mon Oct 21, 1:10am

Mon Oct 21, 1:00am

Mon Oct 21, 12:10am

Mon Oct 21, 12:00am

Sun Oct 20, 11:10pm

Sun Oct 20, 11:00pm

Sun Oct 20, 10:10pm

Sun Oct 20, 10:00pm

Sun Oct 20, 9:10pm

Sun Oct 20, 9:01pm

Sun Oct 20, 8:10pm

Sun Oct 20, 8:00pm

Sun Oct 20, 7:10pm

Sun Oct 20, 7:01pm

Sun Oct 20, 6:10pm

Sun Oct 20, 6:00pm

Sun Oct 20, 5:10pm

Sun Oct 20, 5:00pm

Sun Oct 20, 4:10pm

Sun Oct 20, 4:00pm

Sun Oct 20, 3:10pm

Sun Oct 20, 3:00pm

Sun Oct 20, 2:10pm

Sun Oct 20, 2:01pm

Sun Oct 20, 1:10pm

Sun Oct 20, 1:01pm

Sun Oct 20, 12:10pm

Sun Oct 20, 12:00pm

Sun Oct 20, 11:10am

Sun Oct 20, 11:00am

Sun Oct 20, 10:10am

Sun Oct 20, 10:00am

Sun Oct 20, 9:10am

Sun Oct 20, 9:00am

Sun Oct 20, 8:10am

Sun Oct 20, 8:00am

Sun Oct 20, 7:10am

Sun Oct 20, 7:00am

Sun Oct 20, 6:10am

Sun Oct 20, 6:00am

Sun Oct 20, 5:10am

Sun Oct 20, 5:00am

Sun Oct 20, 4:10am

Sun Oct 20, 4:00am

Sun Oct 20, 3:10am

Sun Oct 20, 3:00am

Sun Oct 20, 2:10am

Sun Oct 20, 2:00am

Sun Oct 20, 1:10am

Sun Oct 20, 1:00am

Sun Oct 20, 12:10am

Sun Oct 20, 12:00am

Sat Oct 19, 11:10pm

Sat Oct 19, 11:00pm

Sat Oct 19, 10:10pm

Sat Oct 19, 10:00pm

Sat Oct 19, 9:10pm

Sat Oct 19, 9:00pm

Sat Oct 19, 8:10pm

Sat Oct 19, 8:00pm

Sat Oct 19, 7:10pm

Sat Oct 19, 7:00pm

Sat Oct 19, 6:10pm

Sat Oct 19, 6:00pm

Sat Oct 19, 5:10pm

Sat Oct 19, 5:00pm

Sat Oct 19, 4:10pm

Sat Oct 19, 4:00pm

Sat Oct 19, 3:10pm

Sat Oct 19, 3:01pm

Sat Oct 19, 2:10pm

Sat Oct 19, 2:00pm

Sat Oct 19, 1:10pm

Sat Oct 19, 1:01pm

Sat Oct 19, 12:10pm

Sat Oct 19, 12:00pm

Sat Oct 19, 11:10am

Sat Oct 19, 10:10am

Sat Oct 19, 10:00am

Sat Oct 19, 9:10am

Sat Oct 19, 9:00am

Sat Oct 19, 8:10am

Sat Oct 19, 8:00am

Sat Oct 19, 7:10am

Sat Oct 19, 7:00am

Sat Oct 19, 6:10am

Sat Oct 19, 6:00am

Sat Oct 19, 5:10am

Sat Oct 19, 5:00am

Sat Oct 19, 4:10am

Sat Oct 19, 4:00am

Sat Oct 19, 3:10am

Sat Oct 19, 3:00am

Meta data:

ID: 042a173a-7ab0-42b2-9df5-352ce1860f37
Link: https://api.weather.gov/products/042a173a-7ab0-42b2-9df5-352ce1860f37